WLF414 KDFW-KDCA

Flight info

Callsign WLF414
Flight time 2h 30m
Altitude 37000
Route TRYTN4 LOOSE Q34 SITTR TRUPS5
Aircraft B738/M-SDE2E3FGHIRWXY/LB1

Departure

Time 2026-05-03 20:17
Airport Dallas Fort Worth International Airport (KDFW)

Arrival

Time 2026-05-03 22:47
Airport Ronald Reagan Washington National Airport (KDCA)
Time Latitude Longitude Altitude Speed Heading
2026-05-03 20:15 32.91401 -97.03179 579 ft 8 kts 33°
2026-05-03 20:15 32.91413 -97.03115 577 ft 8 kts 91°
2026-05-03 20:15 32.91412 -97.03050 577 ft 8 kts 90°
2026-05-03 20:15 32.91399 -97.02995 581 ft 7 kts 149°
2026-05-03 20:16 32.91373 -97.02990 580 ft 1 kts 179°
2026-05-03 20:16 32.91233 -97.02989 575 ft 54 kts 180°
2026-05-03 20:16 32.90617 -97.02992 574 ft 121 kts 180°
2026-05-03 20:16 32.89583 -97.02983 646 ft 170 kts 181°
2026-05-03 20:17 32.88430 -97.02945 988 ft 192 kts 186°
2026-05-03 20:17 32.87189 -97.02952 1549 ft 200 kts 183°
2026-05-03 20:17 32.85778 -97.02858 2114 ft 207 kts 178°
2026-05-03 20:17 32.84328 -97.02596 2598 ft 217 kts 167°
2026-05-03 20:18 32.82837 -97.01925 2839 ft 242 kts 160°
2026-05-03 20:18 32.81218 -97.01129 3173 ft 261 kts 160°
2026-05-03 20:18 32.79488 -97.00253 3712 ft 276 kts 155°
2026-05-03 20:18 32.77928 -96.98903 4617 ft 279 kts 138°
2026-05-03 20:19 32.76872 -96.97045 5719 ft 277 kts 115°
2026-05-03 20:19 32.76345 -96.94815 6427 ft 287 kts 105°
2026-05-03 20:19 32.76158 -96.92438 7147 ft 293 kts 88°
2026-05-03 20:19 32.76378 -96.90003 7781 ft 301 kts 85°
2026-05-03 20:20 32.76612 -96.87485 8364 ft 308 kts 86°
2026-05-03 20:20 32.76823 -96.84981 9338 ft 301 kts 86°
2026-05-03 20:20 32.77008 -96.82516 10219 ft 300 kts 83°
2026-05-03 20:20 32.77546 -96.80082 10708 ft 313 kts 72°
2026-05-03 20:21 32.78253 -96.77542 10914 ft 334 kts 72°
2026-05-03 20:21 32.78977 -96.74901 11290 ft 347 kts 72°
2026-05-03 20:21 32.79720 -96.72141 11874 ft 352 kts 72°
2026-05-03 20:21 32.80457 -96.69367 12629 ft 353 kts 72°
2026-05-03 20:22 32.81188 -96.66578 13502 ft 351 kts 72°
2026-05-03 20:22 32.81910 -96.63802 14255 ft 353 kts 72°
2026-05-03 20:22 32.82641 -96.60978 14771 ft 361 kts 72°
2026-05-03 20:22 32.83383 -96.58099 15340 ft 368 kts 72°
2026-05-03 20:23 32.84137 -96.55163 15969 ft 373 kts 72°
2026-05-03 20:23 32.84896 -96.52203 16643 ft 377 kts 71°
2026-05-03 20:23 32.85666 -96.49210 17316 ft 379 kts 72°
2026-05-03 20:23 32.86440 -96.46197 17958 ft 384 kts 71°
2026-05-03 20:24 32.87227 -96.43131 18480 ft 391 kts 71°
2026-05-03 20:24 32.88022 -96.40017 19029 ft 394 kts 71°
2026-05-03 20:24 32.88824 -96.36881 19604 ft 397 kts 71°
2026-05-03 20:24 32.89631 -96.33727 20139 ft 400 kts 70°
2026-05-03 20:25 32.90512 -96.30616 20642 ft 404 kts 66°
2026-05-03 20:25 32.91508 -96.27531 21158 ft 407 kts 65°
2026-05-03 20:25 32.92568 -96.24377 21679 ft 410 kts 64°
2026-05-03 20:25 32.93636 -96.21204 22189 ft 414 kts 65°
2026-05-03 20:26 32.94704 -96.17997 22691 ft 418 kts 65°
2026-05-03 20:26 32.95768 -96.14758 23183 ft 422 kts 65°
2026-05-03 20:26 32.96818 -96.11531 23664 ft 425 kts 65°
2026-05-03 20:26 32.97888 -96.08223 24084 ft 429 kts 65°
2026-05-03 20:27 32.98958 -96.04901 24526 ft 430 kts 65°
2026-05-03 20:27 33.00035 -96.01554 24927 ft 434 kts 65°
2026-05-03 20:27 33.01119 -95.98181 25298 ft 437 kts 64°
2026-05-03 20:27 33.02210 -95.94784 25689 ft 440 kts 65°
2026-05-03 20:28 33.03308 -95.91355 26085 ft 443 kts 65°
2026-05-03 20:28 33.04411 -95.87915 26455 ft 446 kts 64°
2026-05-03 20:28 33.05509 -95.84495 26813 ft 449 kts 64°
2026-05-03 20:28 33.06629 -95.81007 27172 ft 452 kts 64°
2026-05-03 20:29 33.07761 -95.77496 27523 ft 455 kts 64°
2026-05-03 20:29 33.08900 -95.73965 27868 ft 458 kts 64°
2026-05-03 20:29 33.10044 -95.70409 28226 ft 461 kts 64°
2026-05-03 20:29 33.11192 -95.66834 28628 ft 462 kts 64°
2026-05-03 20:30 33.12342 -95.63238 28978 ft 464 kts 64°
2026-05-03 20:30 33.13497 -95.59626 29290 ft 468 kts 64°
2026-05-03 20:30 33.14658 -95.55987 29590 ft 471 kts 64°
2026-05-03 20:30 33.15827 -95.52316 29911 ft 473 kts 64°
2026-05-03 20:31 33.16996 -95.48642 30210 ft 475 kts 64°
2026-05-03 20:31 33.18173 -95.44940 30461 ft 478 kts 64°
2026-05-03 20:31 33.19351 -95.41226 30702 ft 480 kts 64°
2026-05-03 20:31 33.20522 -95.37534 30943 ft 482 kts 64°
2026-05-03 20:32 33.21688 -95.33850 31173 ft 484 kts 64°
2026-05-03 20:32 33.22876 -95.30092 31475 ft 484 kts 64°
2026-05-03 20:32 33.24060 -95.26343 31807 ft 484 kts 64°
2026-05-03 20:32 33.25245 -95.22581 32129 ft 483 kts 64°
2026-05-03 20:33 33.26403 -95.18905 32424 ft 484 kts 63°
2026-05-03 20:33 33.27385 -95.15783 32647 ft 484 kts 63°
2026-05-03 20:33 33.28413 -95.12513 32930 ft 483 kts 63°
2026-05-03 20:33 33.29594 -95.08753 33249 ft 483 kts 63°
2026-05-03 20:34 33.30776 -95.04987 33536 ft 483 kts 63°
2026-05-03 20:34 33.31954 -95.01227 33808 ft 483 kts 63°
2026-05-03 20:34 33.33131 -94.97466 34100 ft 483 kts 63°
2026-05-03 20:34 33.34307 -94.93703 34408 ft 482 kts 63°
2026-05-03 20:35 33.35474 -94.89959 34757 ft 479 kts 63°
2026-05-03 20:35 33.36639 -94.86222 34980 ft 479 kts 63°
2026-05-03 20:35 33.37807 -94.82475 35138 ft 481 kts 63°
2026-05-03 20:35 33.38976 -94.78719 35328 ft 482 kts 63°
2026-05-03 20:36 33.40142 -94.74964 35573 ft 481 kts 63°
2026-05-03 20:36 33.41290 -94.71261 35816 ft 481 kts 63°
2026-05-03 20:36 33.42454 -94.67504 36020 ft 481 kts 63°
2026-05-03 20:36 33.43616 -94.63748 36196 ft 482 kts 62°
2026-05-03 20:37 33.44781 -94.59979 36375 ft 482 kts 62°
2026-05-03 20:37 33.45946 -94.56205 36600 ft 482 kts 62°
2026-05-03 20:37 33.47106 -94.52438 36894 ft 480 kts 62°
2026-05-03 20:37 33.48259 -94.48688 37104 ft 480 kts 62°
2026-05-03 20:38 33.49419 -94.44918 37108 ft 483 kts 62°
2026-05-03 20:38 33.51730 -94.37385 37128 ft 483 kts 62°
2026-05-03 20:39 33.54033 -94.29846 37123 ft 479 kts 62°
2026-05-03 20:39 33.56311 -94.22360 37128 ft 477 kts 63°
2026-05-03 20:40 33.58531 -94.14930 37132 ft 475 kts 63°
2026-05-03 20:40 33.60747 -94.07460 37139 ft 474 kts 63°
2026-05-03 20:41 33.62953 -94.00015 37147 ft 473 kts 63°
2026-05-03 20:41 33.65163 -93.92549 37142 ft 473 kts 63°
2026-05-03 20:42 33.67365 -93.85091 37131 ft 474 kts 63°
2026-05-03 20:42 33.69551 -93.77665 37155 ft 475 kts 63°
2026-05-03 20:43 33.71756 -93.70158 37139 ft 476 kts 64°
2026-05-03 20:43 33.73957 -93.62640 37126 ft 477 kts 64°
2026-05-03 20:44 33.76156 -93.55109 37123 ft 477 kts 64°
2026-05-03 20:44 33.78344 -93.47597 37130 ft 477 kts 64°
2026-05-03 20:45 33.80532 -93.40065 37128 ft 477 kts 64°
2026-05-03 20:45 33.82705 -93.32567 37131 ft 477 kts 64°
2026-05-03 20:46 33.84887 -93.25011 37126 ft 477 kts 64°
2026-05-03 20:46 33.87058 -93.17468 37134 ft 477 kts 64°
2026-05-03 20:47 33.89227 -93.09927 37129 ft 476 kts 64°
2026-05-03 20:47 33.91677 -93.02570 37162 ft 471 kts 58°
2026-05-03 20:48 33.94154 -92.96176 37128 ft 470 kts 58°
2026-05-03 20:48 33.96899 -92.89024 37127 ft 470 kts 58°
2026-05-03 20:49 33.99581 -92.81828 37128 ft 470 kts 59°
2026-05-03 20:49 34.02221 -92.74671 37127 ft 469 kts 59°
2026-05-03 20:50 34.04870 -92.67484 37128 ft 469 kts 59°
2026-05-03 20:50 34.07539 -92.60304 37131 ft 468 kts 59°
2026-05-03 20:51 34.10241 -92.53144 37120 ft 468 kts 59°
2026-05-03 20:51 34.12916 -92.45976 37124 ft 468 kts 59°
2026-05-03 20:52 34.15575 -92.38805 37120 ft 468 kts 59°
2026-05-03 20:52 34.18229 -92.31634 37131 ft 468 kts 59°
2026-05-03 20:53 34.20877 -92.24480 37131 ft 469 kts 59°
2026-05-03 20:53 34.23535 -92.17296 37137 ft 469 kts 59°
2026-05-03 20:54 34.25746 -92.11301 37130 ft 469 kts 59°
2026-05-03 20:54 34.28483 -92.03852 37134 ft 469 kts 59°
2026-05-03 20:55 34.31125 -91.96643 37137 ft 469 kts 59°
2026-05-03 20:55 34.33763 -91.89430 37148 ft 469 kts 60°
2026-05-03 20:56 34.36396 -91.82214 37133 ft 469 kts 60°
2026-05-03 20:56 34.39025 -91.74991 37124 ft 469 kts 60°
2026-05-03 20:57 34.41649 -91.67767 37137 ft 469 kts 60°
2026-05-03 20:57 34.44270 -91.60534 37130 ft 469 kts 60°
2026-05-03 20:58 34.46868 -91.53348 37146 ft 469 kts 60°
2026-05-03 20:58 34.49485 -91.46095 37144 ft 470 kts 60°
2026-05-03 20:59 34.52099 -91.38834 37142 ft 470 kts 60°
2026-05-03 20:59 34.54708 -91.31566 37138 ft 470 kts 60°
2026-05-03 21:00 34.56891 -91.25476 37134 ft 470 kts 60°
2026-05-03 21:00 34.59917 -91.17014 37140 ft 470 kts 60°
2026-05-03 21:01 34.62520 -91.09717 37140 ft 470 kts 61°
2026-05-03 21:01 34.65115 -91.02422 37133 ft 471 kts 61°
2026-05-03 21:02 34.67710 -90.95114 37131 ft 471 kts 61°
2026-05-03 21:02 34.70119 -90.88314 37132 ft 471 kts 61°
2026-05-03 21:03 34.71384 -90.84735 37126 ft 471 kts 61°
2026-05-03 21:03 34.73950 -90.77469 37139 ft 471 kts 61°
2026-05-03 21:04 34.76532 -90.70138 37129 ft 472 kts 62°
2026-05-03 21:04 34.79113 -90.62793 37121 ft 472 kts 62°
2026-05-03 21:05 34.81691 -90.55439 37124 ft 472 kts 62°
2026-05-03 21:05 34.84264 -90.48082 37118 ft 472 kts 62°
2026-05-03 21:06 34.86833 -90.40717 37122 ft 472 kts 62°
2026-05-03 21:06 34.89400 -90.33342 37127 ft 473 kts 62°
2026-05-03 21:07 34.91947 -90.26006 37112 ft 473 kts 62°
2026-05-03 21:07 34.94296 -90.19222 37108 ft 473 kts 62°
2026-05-03 21:08 34.95605 -90.15436 37109 ft 473 kts 62°
2026-05-03 21:08 34.98155 -90.08043 37114 ft 473 kts 62°
2026-05-03 21:09 35.00707 -90.00629 37116 ft 474 kts 62°
2026-05-03 21:09 35.03292 -89.93239 37119 ft 474 kts 62°
2026-05-03 21:10 35.05949 -89.85885 37122 ft 474 kts 61°
2026-05-03 21:10 35.08588 -89.78568 37119 ft 474 kts 62°
2026-05-03 21:11 35.11234 -89.71167 37123 ft 474 kts 62°
2026-05-03 21:11 35.13864 -89.63776 37125 ft 474 kts 62°
2026-05-03 21:12 35.16481 -89.56403 37118 ft 475 kts 62°
2026-05-03 21:12 35.18851 -89.49712 37122 ft 475 kts 62°
2026-05-03 21:13 35.20408 -89.45308 37120 ft 475 kts 62°
2026-05-03 21:13 35.23024 -89.37897 37121 ft 475 kts 62°
2026-05-03 21:14 35.25638 -89.30472 37134 ft 475 kts 62°
2026-05-03 21:14 35.28250 -89.23032 37133 ft 475 kts 62°
2026-05-03 21:15 35.30838 -89.15636 37130 ft 475 kts 62°
2026-05-03 21:15 35.33441 -89.08194 37133 ft 475 kts 62°
2026-05-03 21:16 35.36043 -89.00751 37134 ft 475 kts 62°
2026-05-03 21:16 35.38644 -88.93307 37131 ft 476 kts 62°
2026-05-03 21:17 35.40805 -88.87097 37128 ft 476 kts 62°
2026-05-03 21:17 35.43532 -88.79232 37143 ft 477 kts 63°
2026-05-03 21:18 35.45059 -88.74819 37134 ft 477 kts 63°
2026-05-03 21:18 35.47651 -88.67315 37135 ft 477 kts 63°
2026-05-03 21:19 35.50246 -88.59783 37151 ft 478 kts 62°
2026-05-03 21:19 35.52827 -88.52265 37144 ft 478 kts 63°
2026-05-03 21:20 35.55391 -88.44786 37139 ft 479 kts 63°
2026-05-03 21:20 35.57976 -88.37240 37138 ft 479 kts 63°
2026-05-03 21:21 35.60556 -88.29705 37142 ft 479 kts 63°
2026-05-03 21:21 35.63138 -88.22134 37139 ft 480 kts 63°
2026-05-03 21:22 35.65713 -88.14557 37130 ft 480 kts 63°
2026-05-03 21:22 35.67946 -88.07968 37150 ft 480 kts 63°
2026-05-03 21:23 35.69507 -88.03354 37142 ft 480 kts 63°
2026-05-03 21:23 35.72071 -87.95758 37149 ft 480 kts 63°
2026-05-03 21:24 35.74615 -87.88201 37162 ft 481 kts 63°
2026-05-03 21:24 35.77174 -87.80578 37146 ft 482 kts 63°
2026-05-03 21:25 35.79735 -87.72927 37155 ft 482 kts 63°
2026-05-03 21:25 35.82258 -87.65315 37152 ft 482 kts 64°
2026-05-03 21:26 35.84785 -87.57651 37154 ft 483 kts 64°
2026-05-03 21:26 35.87317 -87.49952 37150 ft 483 kts 64°
2026-05-03 21:27 35.89837 -87.42272 37150 ft 483 kts 64°
2026-05-03 21:27 35.91977 -87.35734 37149 ft 484 kts 64°
2026-05-03 21:28 35.93545 -87.30937 37154 ft 484 kts 64°
2026-05-03 21:28 35.96060 -87.23224 37143 ft 484 kts 64°
2026-05-03 21:29 35.98569 -87.15509 37142 ft 484 kts 64°
2026-05-03 21:29 36.01078 -87.07770 37138 ft 485 kts 64°
2026-05-03 21:30 36.03588 -87.00008 37134 ft 485 kts 64°
2026-05-03 21:30 36.06071 -86.92311 37114 ft 485 kts 65°
2026-05-03 21:31 36.08568 -86.84549 37126 ft 486 kts 65°
2026-05-03 21:31 36.11057 -86.76782 37140 ft 486 kts 65°
2026-05-03 21:32 36.13541 -86.69024 37139 ft 487 kts 65°
2026-05-03 21:32 36.15641 -86.62516 37135 ft 487 kts 65°
2026-05-03 21:33 36.17289 -86.57466 37141 ft 487 kts 64°
2026-05-03 21:33 36.19827 -86.49674 37165 ft 488 kts 65°
2026-05-03 21:34 36.22360 -86.41852 37156 ft 489 kts 65°
2026-05-03 21:34 36.24883 -86.34021 37151 ft 489 kts 65°
2026-05-03 21:35 36.27387 -86.26228 37151 ft 490 kts 65°
2026-05-03 21:35 36.29906 -86.18367 37159 ft 490 kts 65°
2026-05-03 21:36 36.32421 -86.10499 37150 ft 490 kts 65°
2026-05-03 21:36 36.34914 -86.02677 37152 ft 490 kts 65°
2026-05-03 21:37 36.37421 -85.94791 37145 ft 491 kts 65°
2026-05-03 21:37 36.39468 -85.88336 37152 ft 491 kts 65°
2026-05-03 21:38 36.41105 -85.83163 37143 ft 491 kts 65°
2026-05-03 21:38 36.43602 -85.75256 37174 ft 492 kts 65°
2026-05-03 21:39 36.46098 -85.67329 37149 ft 492 kts 65°
2026-05-03 21:39 36.48586 -85.59404 37133 ft 492 kts 65°
2026-05-03 21:40 36.51066 -85.51482 37137 ft 491 kts 65°
2026-05-03 21:40 36.53537 -85.43569 37136 ft 491 kts 65°
2026-05-03 21:41 36.55974 -85.35740 37141 ft 490 kts 65°
2026-05-03 21:41 36.58428 -85.27828 37138 ft 490 kts 65°
2026-05-03 21:42 36.60879 -85.19908 37143 ft 490 kts 65°
2026-05-03 21:42 36.62838 -85.13574 37143 ft 490 kts 65°
2026-05-03 21:43 36.64487 -85.08238 37146 ft 490 kts 65°
2026-05-03 21:43 36.66949 -85.00245 37145 ft 492 kts 65°
2026-05-03 21:44 36.69376 -84.92327 37150 ft 492 kts 65°
2026-05-03 21:44 36.71817 -84.84336 37139 ft 493 kts 65°
2026-05-03 21:45 36.73846 -84.77683 37151 ft 494 kts 65°
2026-05-03 21:45 36.76281 -84.69672 37146 ft 494 kts 65°
2026-05-03 21:46 36.78709 -84.61652 37140 ft 494 kts 66°
2026-05-03 21:46 36.81140 -84.53616 37117 ft 495 kts 66°
2026-05-03 21:47 36.83584 -84.45555 37115 ft 496 kts 66°
2026-05-03 21:47 36.85896 -84.37902 37122 ft 497 kts 66°
2026-05-03 21:48 36.87159 -84.33707 37119 ft 498 kts 66°
2026-05-03 21:48 36.89593 -84.25592 37103 ft 499 kts 66°
2026-05-03 21:49 36.92027 -84.17451 37103 ft 500 kts 66°
2026-05-03 21:49 36.94453 -84.09311 37117 ft 500 kts 66°
2026-05-03 21:50 36.96881 -84.01152 37113 ft 500 kts 66°
2026-05-03 21:50 36.99300 -83.92986 37107 ft 500 kts 66°
2026-05-03 21:51 37.01708 -83.84820 37110 ft 501 kts 66°
2026-05-03 21:51 37.04113 -83.76628 37121 ft 501 kts 66°
2026-05-03 21:52 37.06510 -83.68439 37124 ft 501 kts 66°
2026-05-03 21:52 37.08740 -83.60804 37119 ft 503 kts 66°
2026-05-03 21:53 37.10012 -83.56437 37122 ft 503 kts 66°
2026-05-03 21:53 37.12408 -83.48192 37111 ft 503 kts 66°
2026-05-03 21:54 37.14795 -83.39949 37112 ft 503 kts 67°
2026-05-03 21:54 37.17171 -83.31719 37107 ft 502 kts 67°
2026-05-03 21:55 37.19542 -83.23491 37103 ft 502 kts 67°
2026-05-03 21:55 37.21890 -83.15304 37118 ft 501 kts 67°
2026-05-03 21:56 37.24249 -83.07056 37109 ft 502 kts 67°
2026-05-03 21:56 37.26609 -82.98794 37100 ft 503 kts 67°
2026-05-03 21:57 37.28982 -82.90501 37110 ft 505 kts 67°
2026-05-03 21:57 37.31139 -82.82916 37105 ft 506 kts 67°
2026-05-03 21:58 37.32472 -82.78212 37097 ft 506 kts 67°
2026-05-03 21:58 37.34833 -82.69856 37093 ft 507 kts 67°
2026-05-03 21:59 37.37175 -82.61540 37093 ft 507 kts 67°
2026-05-03 21:59 37.39527 -82.53167 37096 ft 508 kts 67°
2026-05-03 22:00 37.41880 -82.44761 37094 ft 508 kts 68°
2026-05-03 22:00 37.44221 -82.36365 37097 ft 508 kts 68°
2026-05-03 22:01 37.46555 -82.27977 37157 ft 507 kts 67°
2026-05-03 22:01 37.48873 -82.19609 37098 ft 509 kts 67°
2026-05-03 22:02 37.51203 -82.11182 37099 ft 509 kts 67°
2026-05-03 22:02 37.53302 -82.03615 37127 ft 509 kts 67°
2026-05-03 22:03 37.54657 -81.98718 37109 ft 511 kts 68°
2026-05-03 22:03 37.56986 -81.90256 37103 ft 510 kts 68°
2026-05-03 22:04 37.59304 -81.81808 37100 ft 509 kts 68°
2026-05-03 22:04 37.61608 -81.73376 37096 ft 508 kts 68°
2026-05-03 22:05 37.63877 -81.65026 37107 ft 506 kts 68°
2026-05-03 22:05 37.66150 -81.56625 37149 ft 506 kts 68°
2026-05-03 22:06 37.68421 -81.48195 37094 ft 508 kts 68°
2026-05-03 22:06 37.70692 -81.39741 37088 ft 508 kts 68°
2026-05-03 22:07 37.72956 -81.31278 37083 ft 509 kts 68°
2026-05-03 22:07 37.74947 -81.23812 37070 ft 509 kts 68°
2026-05-03 22:08 37.76302 -81.18716 37072 ft 509 kts 68°
2026-05-03 22:08 37.78606 -81.10235 37074 ft 508 kts 64°
2026-05-03 22:09 37.81474 -81.02155 37082 ft 506 kts 60°
2026-05-03 22:10 37.85951 -80.89990 37092 ft 509 kts 61°
2026-05-03 22:10 37.88829 -80.81824 37100 ft 510 kts 61°
2026-05-03 22:11 37.91750 -80.73618 37102 ft 510 kts 61°
2026-05-03 22:11 37.94655 -80.65472 37120 ft 511 kts 61°
2026-05-03 22:12 37.97571 -80.57245 37096 ft 511 kts 61°
2026-05-03 22:12 38.00476 -80.49011 37107 ft 511 kts 61°
2026-05-03 22:13 38.01821 -80.45192 37114 ft 512 kts 61°
2026-05-03 22:13 38.04726 -80.36926 37100 ft 513 kts 61°
2026-05-03 22:14 38.07609 -80.28696 37111 ft 514 kts 62°
2026-05-03 22:14 38.10532 -80.20391 37109 ft 515 kts 61°
2026-05-03 22:15 38.13489 -80.12106 37100 ft 516 kts 61°
2026-05-03 22:15 38.16449 -80.03781 37100 ft 516 kts 61°
2026-05-03 22:16 38.19393 -79.95448 37020 ft 519 kts 62°
2026-05-03 22:16 38.20877 -79.91236 36505 ft 523 kts 61°
2026-05-03 22:16 38.22360 -79.87016 36021 ft 521 kts 60°
2026-05-03 22:16 38.23834 -79.82814 35413 ft 521 kts 60°
2026-05-03 22:17 38.25301 -79.78625 34951 ft 515 kts 60°
2026-05-03 22:17 38.26735 -79.74523 34555 ft 510 kts 59°
2026-05-03 22:17 38.28174 -79.70408 34085 ft 508 kts 59°
2026-05-03 22:17 38.29174 -79.67528 33684 ft 507 kts 59°
2026-05-03 22:18 38.29551 -79.66436 33558 ft 506 kts 59°
2026-05-03 22:18 38.30958 -79.62348 33118 ft 502 kts 60°
2026-05-03 22:18 38.32344 -79.58300 32702 ft 497 kts 60°
2026-05-03 22:18 38.33721 -79.54279 32264 ft 493 kts 60°
2026-05-03 22:19 38.35085 -79.50292 31860 ft 488 kts 60°
2026-05-03 22:19 38.36431 -79.46353 31555 ft 481 kts 60°
2026-05-03 22:19 38.37776 -79.42421 30729 ft 488 kts 60°
2026-05-03 22:19 38.39148 -79.38415 29782 ft 496 kts 60°
2026-05-03 22:20 38.40515 -79.34399 29280 ft 491 kts 60°
2026-05-03 22:20 38.41859 -79.30419 28826 ft 487 kts 62°
2026-05-03 22:20 38.42927 -79.26322 28401 ft 487 kts 72°
2026-05-03 22:20 38.43653 -79.22149 28142 ft 478 kts 73°
2026-05-03 22:21 38.44328 -79.18027 27779 ft 472 kts 73°
2026-05-03 22:21 38.45007 -79.13932 27377 ft 474 kts 73°
2026-05-03 22:21 38.45715 -79.09814 26939 ft 476 kts 73°
2026-05-03 22:21 38.46436 -79.05697 26511 ft 474 kts 72°
2026-05-03 22:22 38.47153 -79.01609 26123 ft 468 kts 72°
2026-05-03 22:22 38.47855 -78.97588 25769 ft 463 kts 72°
2026-05-03 22:22 38.48551 -78.93590 25353 ft 459 kts 72°
2026-05-03 22:22 38.49006 -78.90969 25083 ft 457 kts 72°
2026-05-03 22:23 38.49157 -78.90098 24995 ft 456 kts 72°
2026-05-03 22:23 38.49841 -78.86160 24591 ft 453 kts 72°
2026-05-03 22:23 38.50499 -78.82240 24221 ft 450 kts 73°
2026-05-03 22:23 38.51115 -78.78334 23843 ft 447 kts 73°
2026-05-03 22:24 38.51714 -78.74453 23417 ft 445 kts 73°
2026-05-03 22:24 38.52313 -78.70591 22934 ft 443 kts 73°
2026-05-03 22:24 38.52914 -78.66746 22536 ft 440 kts 73°
2026-05-03 22:24 38.53515 -78.62934 22102 ft 435 kts 73°
2026-05-03 22:25 38.54116 -78.59171 21763 ft 430 kts 73°
2026-05-03 22:25 38.54715 -78.55442 21341 ft 428 kts 73°
2026-05-03 22:25 38.55311 -78.51716 20926 ft 427 kts 73°
2026-05-03 22:25 38.55899 -78.48011 20480 ft 427 kts 74°
2026-05-03 22:26 38.56487 -78.44296 20062 ft 426 kts 74°
2026-05-03 22:26 38.57064 -78.40647 19669 ft 424 kts 74°
2026-05-03 22:26 38.57663 -78.36961 19255 ft 423 kts 73°
2026-05-03 22:26 38.58304 -78.33307 18836 ft 420 kts 73°
2026-05-03 22:27 38.58948 -78.29679 18436 ft 418 kts 73°
2026-05-03 22:27 38.59585 -78.26056 17965 ft 418 kts 73°
2026-05-03 22:27 38.60384 -78.22506 17514 ft 413 kts 65°
2026-05-03 22:27 38.61067 -78.20379 17259 ft 409 kts 62°
2026-05-03 22:28 38.61382 -78.19458 17151 ft 408 kts 62°
2026-05-03 22:28 38.62524 -78.16152 16756 ft 405 kts 62°
2026-05-03 22:28 38.63631 -78.12853 16352 ft 403 kts 63°
2026-05-03 22:28 38.64707 -78.09559 15965 ft 400 kts 63°
2026-05-03 22:29 38.65763 -78.06282 15578 ft 398 kts 63°
2026-05-03 22:29 38.66808 -78.03016 15177 ft 395 kts 64°
2026-05-03 22:29 38.67848 -77.99774 14783 ft 393 kts 64°
2026-05-03 22:29 38.68886 -77.96543 14389 ft 391 kts 64°
2026-05-03 22:30 38.69914 -77.93330 14014 ft 389 kts 64°
2026-05-03 22:30 38.70937 -77.90131 13598 ft 387 kts 64°
2026-05-03 22:30 38.71954 -77.86950 13193 ft 385 kts 64°
2026-05-03 22:30 38.72963 -77.83812 12996 ft 376 kts 62°
2026-05-03 22:31 38.74313 -77.81035 12651 ft 363 kts 43°
2026-05-03 22:31 38.76026 -77.78703 12322 ft 357 kts 41°
2026-05-03 22:31 38.77689 -77.76402 11937 ft 347 kts 43°
2026-05-03 22:31 38.79282 -77.74136 11588 ft 338 kts 43°
2026-05-03 22:32 38.80824 -77.71916 11260 ft 329 kts 43°
2026-05-03 22:32 38.82280 -77.69695 10913 ft 325 kts 52°
2026-05-03 22:32 38.82999 -77.68008 10721 ft 324 kts 60°
2026-05-03 22:32 38.83844 -77.65604 10449 ft 318 kts 62°
2026-05-03 22:33 38.84970 -77.62353 10071 ft 310 kts 62°
2026-05-03 22:33 38.85850 -77.59850 9733 ft 305 kts 61°
2026-05-03 22:33 38.86441 -77.58187 9531 ft 302 kts 60°
2026-05-03 22:34 38.87313 -77.55760 9227 ft 297 kts 60°
2026-05-03 22:34 38.88174 -77.53379 8925 ft 292 kts 60°
2026-05-03 22:34 38.89026 -77.51028 8637 ft 288 kts 60°
2026-05-03 22:34 38.89861 -77.48723 8357 ft 284 kts 60°
2026-05-03 22:35 38.90608 -77.46380 8081 ft 287 kts 74°
2026-05-03 22:35 38.90542 -77.43798 7798 ft 297 kts 105°
2026-05-03 22:35 38.89689 -77.41410 7519 ft 301 kts 118°
2026-05-03 22:35 38.88640 -77.39069 7179 ft 303 kts 120°
2026-05-03 22:36 38.87595 -77.36750 6840 ft 300 kts 120°
2026-05-03 22:36 38.86567 -77.34432 6512 ft 297 kts 119°
2026-05-03 22:36 38.85557 -77.32130 6183 ft 295 kts 119°
2026-05-03 22:36 38.84556 -77.29850 5915 ft 290 kts 119°
2026-05-03 22:37 38.83568 -77.27647 5748 ft 281 kts 120°
2026-05-03 22:37 38.82601 -77.25505 5595 ft 273 kts 120°
2026-05-03 22:37 38.81658 -77.23418 5456 ft 270 kts 120°
2026-05-03 22:37 38.80721 -77.21343 5341 ft 268 kts 120°
2026-05-03 22:38 38.79786 -77.19271 5190 ft 268 kts 120°
2026-05-03 22:38 38.78853 -77.17204 5056 ft 268 kts 120°
2026-05-03 22:38 38.77921 -77.15137 4909 ft 268 kts 120°
2026-05-03 22:38 38.76965 -77.13092 4756 ft 267 kts 127°
2026-05-03 22:39 38.75548 -77.11637 4614 ft 261 kts 161°
2026-05-03 22:39 38.73803 -77.11148 4503 ft 255 kts 178°
2026-05-03 22:39 38.72037 -77.11037 4371 ft 254 kts 181°
2026-05-03 22:39 38.70281 -77.10978 4253 ft 248 kts 182°
2026-05-03 22:40 38.68597 -77.10910 4097 ft 237 kts 182°
2026-05-03 22:40 38.66985 -77.10833 4005 ft 227 kts 181°
2026-05-03 22:40 38.65435 -77.10752 3866 ft 218 kts 181°
2026-05-03 22:40 38.63958 -77.10670 3752 ft 209 kts 182°
2026-05-03 22:41 38.62530 -77.10590 3639 ft 204 kts 178°
2026-05-03 22:41 38.61214 -77.09916 3414 ft 211 kts 135°
2026-05-03 22:41 38.60575 -77.08284 3328 ft 207 kts 94°
2026-05-03 22:41 38.60814 -77.06535 3222 ft 198 kts 56°
2026-05-03 22:42 38.61722 -77.05328 3095 ft 190 kts 25°
2026-05-03 22:42 38.62898 -77.04688 2990 ft 186 kts 16°
2026-05-03 22:42 38.64049 -77.04121 2887 ft 186 kts 17°
2026-05-03 22:42 38.65252 -77.03521 2778 ft 188 kts 15°
2026-05-03 22:43 38.66461 -77.02919 2641 ft 183 kts 15°
2026-05-03 22:43 38.67615 -77.02343 2500 ft 173 kts 13°
2026-05-03 22:43 38.68741 -77.02141 2368 ft 157 kts 348°
2026-05-03 22:43 38.69803 -77.02253 2255 ft 151 kts 351°
2026-05-03 22:44 38.70819 -77.02334 2126 ft 143 kts 349°
2026-05-03 22:44 38.71823 -77.02432 1754 ft 154 kts 351°
2026-05-03 22:44 38.72931 -77.02542 1616 ft 158 kts 348°
2026-05-03 22:44 38.74047 -77.02654 1617 ft 165 kts 349°
2026-05-03 22:45 38.75180 -77.02768 1603 ft 162 kts 349°
2026-05-03 22:45 38.76273 -77.02877 1528 ft 155 kts 350°
2026-05-03 22:45 38.77307 -77.02979 1361 ft 143 kts 349°
2026-05-03 22:45 38.78300 -77.03088 1122 ft 145 kts 348°
2026-05-03 22:46 38.79311 -77.03202 971 ft 144 kts 348°
2026-05-03 22:46 38.80315 -77.03310 782 ft 150 kts 353°
2026-05-03 22:46 38.81325 -77.03379 615 ft 143 kts 351°
2026-05-03 22:46 38.82347 -77.03468 440 ft 141 kts 347°
2026-05-03 22:47 38.83354 -77.03605 215 ft 147 kts 353°
2026-05-03 22:47 38.84355 -77.03694 44 ft 137 kts 352°
2026-05-03 22:47 38.85136 -77.03784 23 ft 67 kts 355°
2026-05-03 22:47 38.85314 -77.03799 22 ft 16 kts 356°
2026-05-03 22:48 38.85451 -77.03814 25 ft 16 kts 349°
2026-05-03 22:48 38.85517 -77.03873 24 ft 8 kts 308°
2026-05-03 22:48 38.85547 -77.03922 27 ft 6 kts 308°
2026-05-03 22:48 38.85580 -77.03962 23 ft 8 kts 319°
2026-05-03 22:49 38.85625 -77.04007 24 ft 8 kts 324°
2026-05-03 22:49 38.85664 -77.04043 25 ft 6 kts 325°
2026-05-03 22:49 38.85693 -77.04069 26 ft 5 kts 324°
2026-05-03 22:49 38.85708 -77.04104 24 ft 5 kts 267°
2026-05-03 22:50 38.85690 -77.04139 25 ft 5 kts 229°
2026-05-03 22:50 38.85672 -77.04167 23 ft 3 kts 230°
2026-05-03 22:50 38.85670 -77.04169 25 ft 0 kts 231°